Saint Simons Island, GA

7:09 AM EDT on June 28, 2017 (GMT -0400)
McKinnon

Weather History for KSSI - March, 2013

Change the Weather History Date:

Tuesday, March 19, 2013

  Actual Average Record
Temperature  
Mean Temperature 67 °F 61 °F  
Max Temperature 78 °F 70 °F 89 °F (1963)
Min Temperature 56 °F 52 °F 36 °F (1960)
Degree Days  
Heating Degree Days 0 5  
Month to date heating degree days 195 128  
Since 1 July heating degree days 1110 1379  
Cooling Degree Days 2 1  
Month to date cooling degree days 2 18  
Year to date cooling degree days 30 27  
Growing Degree Days 18 (Base 50)    
Moisture  
Dew Point 55 °F    
Average Humidity 63    
Maximum Humidity 93    
Minimum Humidity 33    
Precipitation  
Precipitation 0.01 in 0.12 in 1.16 in (1972)
Month to date precipitation 0.42 2.46  
Year to date precipitation 4.53 9.15  
Snow  
Snow 0.00 in - 0.00 in ()
Month to date snowfall 0.0  
Since 1 July snowfall 0.0  
Snow Depth 0.00 in    
Sea Level Pressure  
Sea Level Pressure 29.97 in    
Wind  
Wind Speed 7 mph (WNW)    
Max Wind Speed 18 mph    
Max Gust Speed 24 mph    
Visibility 9 miles    
Events Rain , Thunderstorm    
T = Trace of Precipitation, MM = Missing Value Source: NWS Daily Summary

Daily Weather History Graph

Daily Weather History Graph

Search for Another Location

Airport or City:

Trip Planner

Search our weather history database for the weather conditions in past years. The results will help you decide how hot, cold, wet, or windy it might be!

Date:

Astronomy

Mar. 19, 2013 Rise Set
Actual Time 7:30 AM EDT 7:36 PM EDT
Civil Twilight 7:06 AM EDT 8:00 PM EDT
Nautical Twilight 6:38 AM EDT 8:28 PM EDT
Astronomical Twilight 6:09 AM EDT 8:57 PM EDT
Moon 12:40 PM EDT (3/19) 2:01 AM EDT (3/19)
Length of Visible Light 12h 54m
Length of Day
12h 06m
Waxing Crescent, 49% of the Moon is Illuminated
Mar 19
Waxing Crescent
Mar 19
First Quarter
Mar 27
Full
Apr 3
Last Quarter
Apr 10
New

Hourly Weather History & Observations

Time (EDT) Temp. Dew Point Humidity Pressure Visibility Wind Dir Wind Speed Gust Speed Precip Events Conditions
12:02 AM 64.4 °F 55.4 °F 73% 29.99 in 10.0 mi North 17.3 mph 26.5 mph N/A   Overcast
12:15 AM 62.6 °F 55.4 °F 77% 29.98 in 10.0 mi North 12.7 mph 23.0 mph 0.00 in Rain Light Rain
12:26 AM 60.8 °F 57.2 °F 88% 30.00 in 4.0 mi NW 8.1 mph 24.2 mph 0.06 in Rain , Thunderstorm Thunderstorms and Rain
12:31 AM 60.8 °F 57.2 °F 88% 30.00 in 1.8 mi Variable 6.9 mph 18.4 mph 0.15 in Rain , Thunderstorm Heavy Thunderstorms and Rain
12:44 AM 59.0 °F 57.2 °F 94% 30.00 in 3.0 mi NW 5.8 mph - 0.24 in Rain , Thunderstorm Rain
12:53 AM 59.0 °F 57.9 °F 96% 30.00 in 4.0 mi NNW 4.6 mph - 0.26 in Rain , Thunderstorm Light Rain
1:08 AM 59.0 °F 57.2 °F 94% 30.00 in 7.0 mi NNW 4.6 mph - 0.03 in Rain Light Rain
1:53 AM 59.0 °F 57.0 °F 93% 30.00 in 10.0 mi Calm Calm - 0.03 in   Overcast
2:53 AM 59.0 °F 57.9 °F 96% 29.98 in 10.0 mi Calm Calm - N/A   Overcast
3:53 AM 59.0 °F 57.9 °F 96% 29.93 in 10.0 mi South 4.6 mph - 0.00 in Rain Light Rain
4:53 AM 60.1 °F 57.9 °F 93% 29.84 in 10.0 mi South 13.8 mph 20.7 mph 0.00 in   Scattered Clouds
5:53 AM 59.0 °F 57.0 °F 93% 29.89 in 10.0 mi WSW 3.5 mph - N/A   Clear
6:53 AM 59.0 °F 55.9 °F 90% 29.98 in 10.0 mi West 9.2 mph 17.3 mph N/A   Partly Cloudy
7:53 AM 59.0 °F 57.0 °F 93% 29.92 in 10.0 mi WSW 8.1 mph - 0.00 in   Clear
8:53 AM 61.0 °F 57.9 °F 90% 29.94 in 10.0 mi West 5.8 mph - N/A   Clear
9:53 AM 64.0 °F 59.0 °F 84% 29.98 in 10.0 mi West 11.5 mph - N/A   Clear
10:53 AM 66.9 °F 57.9 °F 73% 29.99 in 10.0 mi West 11.5 mph - N/A   Clear
11:40 AM 68.0 °F 57.2 °F 68% 29.98 in 10.0 mi WNW 18.4 mph 24.2 mph N/A   Mostly Cloudy
11:53 AM 69.1 °F 57.9 °F 68% 29.98 in 10.0 mi West 12.7 mph 20.7 mph N/A   Mostly Cloudy
12:53 PM 69.1 °F 57.9 °F 68% 29.99 in 10.0 mi WNW 12.7 mph 23.0 mph N/A   Mostly Cloudy
1:12 PM 69.8 °F 57.2 °F 64% 29.98 in 10.0 mi WNW 11.5 mph - N/A   Scattered Clouds
1:53 PM 71.1 °F 57.0 °F 61% 29.97 in 10.0 mi WNW 13.8 mph 19.6 mph N/A   Clear
2:53 PM 71.1 °F 55.9 °F 59% 29.95 in 10.0 mi WNW 5.8 mph - N/A   Overcast
3:53 PM 73.9 °F 55.9 °F 53% 29.94 in 10.0 mi West 9.2 mph - N/A   Scattered Clouds
4:53 PM 77.0 °F 51.1 °F 40% 29.94 in 10.0 mi NNW 8.1 mph - N/A   Clear
5:53 PM 77.0 °F 48.0 °F 36% 29.93 in 10.0 mi NW 9.2 mph - N/A   Clear
6:53 PM 75.0 °F 45.0 °F 34% 29.95 in 10.0 mi NW 5.8 mph - N/A   Clear
7:53 PM 70.0 °F 48.0 °F 46% 29.96 in 10.0 mi NNW 3.5 mph - N/A   Clear
8:53 PM 64.0 °F 51.1 °F 63% 29.98 in 10.0 mi Calm Calm - N/A   Clear
9:53 PM 62.1 °F 51.1 °F 67% 29.99 in 10.0 mi Calm Calm - N/A   Clear
10:53 PM 59.0 °F 50.0 °F 72% 30.01 in 10.0 mi Calm Calm - N/A   Clear
11:53 PM 57.9 °F 48.9 °F 72% 30.01 in 10.0 mi NNW 3.5 mph - N/A   Clear